Regional Weather Roundup
Issued by NWS

Home | Current Version | Previous Version | Graphics & Text | Print | Product List | Glossary On
Versions: 1 2 3 4 5 6 7 8 9 10 11 12 13 14 15 16 17 18 19 20 21 22 23 24 25 26 27 28 29 30 31 32 33 34 35 36 37 38 39 40 41 42 43 44 45 46 47 48 49 50
000
ASUS45 KSLC 200310
RWRUT

UTAH REGIONAL WEATHER ROUNDUP
NATIONAL WEATHER SERVICE SALT LAKE CITY UT
800 PM MST WED NOV 19 2014

UTZ001>011-023>025-200400-

NORTHERN UTAH

CITY           SKY/WX    TMP DP  RH WIND       PRES   REMARKS
BRIGHAM CITY   CLOUDY    32  23  69 CALM      30.12S
HILL AFB       CLOUDY    35  21  56 NE2       30.11S
LOGAN          CLEAR     34  25  69 S3        30.11F
OGDEN          CLOUDY    35  21  56 CALM      30.11S
PROVO AIRPORT  PTCLDY    28  19  69 CALM      30.12S
SALT LAKE CITY CLOUDY    36  27  69 NW5       30.12R WCI  32
VERNAL         MOCLDY    31  13  47 W3        30.12S
WENDOVER       MOCLDY    27  16  63 CALM      30.13R
HEBER CITY     MOCLDY    32  19  59 CALM      30.10S
WEST JORDAN    CLOUDY    36  28  75 CALM      30.12S

$$

UTZ012>022-026-027-200400-

SOUTHERN/CENTRAL UTAH

CITY           SKY/WX    TMP DP  RH WIND       PRES   REMARKS
BLANDING       PTCLDY    28  18  65 N5        30.23S WCI  23
BRYCE CANYON   MOCLDY    24  16  71 SW3       30.17S
CEDAR CITY     CLOUDY    44  11  26 S7        30.11S
DELTA          PTCLDY    35  19  51 NE3       30.09F
MILFORD        NOT AVBL
MOAB/CYNLANDS  CLEAR     31   8  38 CALM      30.15S
PRICE          MOCLDY    30  10  43 NE6       30.15F WCI  24
ST GEORGE      CLOUDY    52  12  20 CALM      30.13R
KANAB            N/A     34   7  32 NE6       30.17S WCI  29

$$

REGIONAL REPORTS     COLORADO/ARIZONA

CITY           SKY/WX    TMP DP  RH WIND       PRES   REMARKS
CRAIG, CO      CLEAR     25  15  66 E7        30.13R WCI  17
GRAND JUNCTION PTCLDY    32  13  45 NE3       30.17R
RIFLE          CLEAR     27  18  69 S3        30.18R
MONTROSE       PTCLDY    32  16  51 SE8       30.19S WCI  25
CORTEZ         CLEAR     26  18  71 E5        30.18S WCI  20
PAGE, AZ       NOT AVBL
GRAND CANYON   PTCLDY    28  -1  28 CALM      30.18S
KINGMAN        MOCLDY    48   9  20 S9        30.12R
FLAGSTAFF      MOCLDY    35   5  28 CALM      30.19F

$$

REGIONAL REPORTS    NEVADA/IDAHO/WYOMING

CITY           SKY/WX    TMP DP  RH WIND       PRES   REMARKS
LAS VEGAS, NV  PTCLDY    56  16  20 SW7       30.05S
ELY            MOCLDY    38   8  29 S3        30.12R
ELKO           PTCLDY    31  24  75 CALM      30.08S
POCATELLO, ID  CLEAR     24  20  84 E3        30.11S
BURLEY         MOCLDY    27  24  89 CALM      30.06S
EVANSTON, WY   MOCLDY    34  12  40 SW6       30.11S WCI  29
ROCK SPRINGS   PTCLDY    31  13  47 SW10      30.09R WCI  22

$$



USA.gov is the U.S. government's official web portal to all federal, state and local government web resources and services.